Diretta Meteo Milano-Linate, Italiamercoledì 24 luglio ore 06:50

Mappa
Sereno 25 °C Sereno 24 Ore: T.min 24 T.max 34
Ponente Nord Km/h 3.7 Punto di rugiada: 22 °C Umidità: 83% Visibilità: 7 Km
Il sole sorge alle: 05:56 Il sole tramonta alle: 21:02
24 Luglio 2019 06:50 tempo osservato: Sereno Sereno 25 83 1017 vento: Nord N 3.7
24 Luglio 2019 05:50 tempo osservato: Sereno Sereno 24 88 1017 vento: Nord N 3.7
24 Luglio 2019 05:20 tempo osservato: Sereno Sereno 25 83 1017 vento: Nord N 3.7
24 Luglio 2019 04:50 tempo osservato: Sereno Sereno 25 83 1017 vento: Nord N 3.7
24 Luglio 2019 04:20 tempo osservato: Sereno Sereno 24 88 1017 vento: Nord N 1.8
24 Luglio 2019 03:50 tempo osservato: Sereno Sereno 25 83 1017 vento: Nord N 1.8
24 Luglio 2019 03:20 tempo osservato: Sereno Sereno 25 83 1017 vento: Nord N 1.8
24 Luglio 2019 02:50 tempo osservato: Sereno Sereno 25 83 1017 vento: Nord N 1.8
24 Luglio 2019 02:20 tempo osservato: Sereno Sereno 25 83 1017 vento: Nord N 1.8
24 Luglio 2019 01:50 tempo osservato: Sereno Sereno 26 78 1017 vento: Nord N 1.8
24 Luglio 2019 01:20 tempo osservato: Sereno Sereno 25 83 1017 vento: Nord N 3.7
24 Luglio 2019 00:50 tempo osservato: Sereno Sereno 26 78 1017 vento: Nord N 3.7
24 Luglio 2019 00:20 tempo osservato: Sereno Sereno 25 83 1017 vento: Nord N 1.8
23 Luglio 2019 23:50 tempo osservato: Sereno Sereno 27 74 1017 vento: Nord N 3.7
23 Luglio 2019 23:20 tempo osservato: Sereno Sereno 27 74 1017 vento: Nord N 3.7
23 Luglio 2019 22:50 tempo osservato: Sereno Sereno 26 78 1017 vento: Nord N 1.8
23 Luglio 2019 22:20 tempo osservato: Sereno Sereno 27 69 1017 vento: Nord N 3.7
23 Luglio 2019 21:50 tempo osservato: Sereno Sereno 27 69 1017 vento: Nord N 3.7
23 Luglio 2019 21:20 tempo osservato: Sereno Sereno 30 55 1017 vento: Nord N 3.7
23 Luglio 2019 20:50 tempo osservato: Sereno Sereno 30 55 1017 vento: Nord N 3.7
23 Luglio 2019 20:20 tempo osservato: Sereno Sereno 32 49 1017 vento: Nord N 5.5
23 Luglio 2019 19:50 tempo osservato: Sereno Sereno 33 46 1017 vento: Nord S/SO 9.3
23 Luglio 2019 19:20 tempo osservato: Sereno Sereno 33 49 1017 vento: Nord S 7.4
23 Luglio 2019 18:50 tempo osservato: Sereno Sereno 33 49 1017 vento: Nord S/SE 9.3
23 Luglio 2019 18:20 tempo osservato: Sereno Sereno 33 49 1017 vento: Nord E/SE 7.4
23 Luglio 2019 17:50 tempo osservato: Sereno Sereno 33 49 1017 vento: Nord S/SE 9.3
23 Luglio 2019 17:20 tempo osservato: Sereno Sereno 33 49 1017 vento: Nord SE 9.3
23 Luglio 2019 16:50 tempo osservato: Sereno Sereno 34 46 1017 vento: Nord SE 9.3
23 Luglio 2019 16:20 tempo osservato: Poco Nuvoloso Poco Nuvoloso 34 49 1018 vento: Nord N 3.7
23 Luglio 2019 15:50 tempo osservato: Poco Nuvoloso Poco Nuvoloso 33 49 1018 vento: Nord SE 7.4
23 Luglio 2019 15:20 tempo osservato: Poco Nuvoloso Poco Nuvoloso 33 49 1018 vento: Nord N 5.5
23 Luglio 2019 14:50 tempo osservato: Nuvoloso Nuvoloso 33 49 1018 vento: Nord S/SE 9.3
23 Luglio 2019 14:20 tempo osservato: Poco Nuvoloso Poco Nuvoloso 33 49 1019 vento: Nord S 11.1
23 Luglio 2019 13:20 tempo osservato: Poco Nuvoloso Poco Nuvoloso 32 52 1019 vento: Nord S 9.3
23 Luglio 2019 12:50 tempo osservato: Sereno Sereno 32 55 1019 vento: Nord S 9.3
23 Luglio 2019 12:20 tempo osservato: Sereno Sereno 32 52 1020 vento: Nord S 9.3
23 Luglio 2019 11:50 tempo osservato: Sereno Sereno 31 55 1020 vento: Nord S 9.3
23 Luglio 2019 11:20 tempo osservato: Sereno Sereno 31 55 1020 vento: Nord N 5.5
23 Luglio 2019 10:50 tempo osservato: Sereno Sereno 31 55 1020 vento: Nord S/SE 7.4
23 Luglio 2019 10:20 tempo osservato: Sereno Sereno 30 58 1020 vento: Nord N 5.5
23 Luglio 2019 09:50 tempo osservato: Sereno Sereno 29 62 1020 vento: Nord E/SE 7.4
23 Luglio 2019 09:20 tempo osservato: Sereno Sereno 29 62 1020 vento: Nord N 5.5
23 Luglio 2019 08:50 tempo osservato: Sereno Sereno 28 65 1020 vento: Nord E 7.4
23 Luglio 2019 08:20 tempo osservato: Sereno Sereno 27 74 1020 vento: Nord N 5.5
23 Luglio 2019 07:50 tempo osservato: Sereno Sereno 26 78 1020 vento: Nord N 5.5